Dati Storici

Data ora Umidita' aria (%) Temperatura aria (°C) Rad globale (W/m²) Gonioanemometro (°) Tacoanemometro (m/s) Pioggia (mm)
26-10-2012 06:10 89.7 % 9.66 3.863 13.451 1.582 0
26-10-2012 06:00 90.2 % 9.679 3.632 11.877 1.996 0
26-10-2012 05:50 90.2 % 9.622 3.388 29.859 1.92 0
26-10-2012 05:40 90.2 % 9.643 3.452 29.895 1.86 0
26-10-2012 05:30 90.4 % 9.708 3.542 9.495 1.745 0
26-10-2012 05:20 90.3 % 9.732 3.452 2.696 1.276 0
26-10-2012 05:10 90.3 % 9.798 3.558 25.194 1.493 0
26-10-2012 05:00 90.5 % 9.808 3.712 36.22 0.512 0
26-10-2012 04:50 90.7 % 9.818 3.481 30.462 0.541 0
26-10-2012 04:40 90.5 % 9.735 2.687 36.991 0.762 0
26-10-2012 04:30 90.5 % 9.771 2.968 40.954 0.904 0
26-10-2012 04:20 90.3 % 9.845 2.623 357.728 0.664 0
26-10-2012 04:10 89.9 % 9.819 2.353 20.274 1.208 0
26-10-2012 04:00 89.1 % 9.928 2.002 24.726 0.704 0
26-10-2012 03:50 88.9 % 10.162 2.04 7.911 1.512 0
26-10-2012 03:40 88.5 % 10.297 1.809 5.622 1.362 0
26-10-2012 03:30 88 % 10.369 1.784 17.589 0.827 0
26-10-2012 03:20 87.8 % 10.514 2.053 38.276 1.271 0
26-10-2012 03:10 87.8 % 10.583 2.232 51.501 1.209 0
26-10-2012 03:00 87.8 % 10.586 1.963 16.143 0.844 0

I dati sono presentati in modo automatico a scopo informativo. In seguito a verifica i dati possono subire modifiche o essere invalidati e non riportati negli archivi definitivi.